Regional Weather Roundup
Issued by NWS Boston, MA

Home | Current Version | Previous Version | Text Only | Print | Product List | Glossary On
Versions: 1 2 3 4 5 6 7 8 9 10 11 12 13 14 15 16 17 18 19 20 21 22 23 24 25 26 27 28 29 30 31 32 33 34 35 36 37 38 39 40 41 42 43 44 45 46 47 48 49 50
000
ASUS41 KBOX 251410
RWRBOX

REGIONAL WEATHER ROUNDUP
NATIONAL WEATHER SERVICE TAUNTON MA
1000 AM EDT FRI JUL 25 2014

NOTE:  "FAIR" INDICATES FEW OR NO CLOUDS BELOW 12,000 FEET WITH NO
SIGNIFICANT WEATHER AND/OR OBSTRUCTIONS TO VISIBILITY.  THE FOLLOWING
OBSERVATION LOCATIONS DO NOT REPORT PRESENT WEATHER...PROVINCETOWN...
SMITHFIELD...BLOCK ISLAND...KEENE...AND OXFORD.

MAZALL-251500-
EASTERN MASSACHUSETTS

CITY           SKY/WX    TMP DP  RH WIND       PRES   REMARKS
BOSTON         MOSUNNY   74  49  41 VRB3      29.97S
BEVERLY        SUNNY     72  56  57 NW7       29.97R
LAWRENCE       SUNNY     71  56  58 W5        29.99S
BEDFORD        SUNNY     71  56  58 W6        29.98R
BLUE HILL        N/A     69  54  58 VRB6      29.99R
NORWOOD        SUNNY     72  54  53 VRB6      29.98R
MARSHFIELD     SUNNY     72  50  46 N5        29.99R
PLYMOUTH       SUNNY     71  50  47 N9        29.98R
TAUNTON        SUNNY     72  53  51 NE6       29.97S
NEW BEDFORD    SUNNY     72  56  57 N7        29.96S
$$

MAZALL-251500-
CAPE COD AND THE ISLANDS

CITY           SKY/WX    TMP DP  RH WIND       PRES   REMARKS
FALMOUTH       SUNNY     70  59  68 N10       29.97R
HYANNIS        SUNNY     71  60  68 N9        29.95R
CHATHAM        MOSUNNY   72  59  63 N6        29.96R
PROVINCETOWN   SUNNY     66  61  82 NW9       29.97R
NANTUCKET      MOSUNNY   70  62  76 N9        29.96R
MARTHAS VNYRD  SUNNY     72  61  68 N9        29.96R
$$

MAZALL-251500-
CENTRAL AND WESTERN MASSACHUSETTS

CITY           SKY/WX    TMP DP  RH WIND       PRES   REMARKS
WORCESTER      SUNNY     69  48  47 E3        30.03R
FITCHBURG      SUNNY     73  53  49 CALM      30.01R
ORANGE           N/A    N/A N/A N/A MISG      30.02S
SPRINGFIELD    SUNNY     68  56  66 VRB2      30.02R
WESTFIELD      SUNNY     69  56  62 CALM      30.02S
NORTH ADAMS    SUNNY     65  55  70 CALM      30.05S
PITTSFIELD     SUNNY     66  52  60 W5        30.05R
$$

RIZALL-251500-
RHODE ISLAND

CITY           SKY/WX    TMP DP  RH WIND       PRES   REMARKS
PROVIDENCE     MOSUNNY   73  50  44 NE9G16    29.99R
NEWPORT        SUNNY     71  55  56 N8        29.98R
BLOCK ISLAND   SUNNY     70  55  60 N7        30.00R
SMITHFIELD     SUNNY     70  54  56 N6        30.02R
WESTERLY       SUNNY     72  54  53 VRB7      30.00R
$$

CTZALL-251500-
CONNECTICUT

CITY           SKY/WX    TMP DP  RH WIND       PRES   REMARKS
BRADLEY INTL   SUNNY     72  55  55 N3        30.01S
HARTFORD       SUNNY     72  53  51 N6        30.02R
BRIDGEPORT     SUNNY     75  52  44 NE6       30.02S
DANBURY        SUNNY     70  53  54 N6        30.05S
GROTON         SUNNY     72  53  51 N12       29.99R
NEW HAVEN      SUNNY     76  54  46 N7        30.02R
CHESTER        FAIR      72  54  53 NW9       30.03R
MERIDEN        SUNNY     72  53  51 NW7       30.02S
WILLIMANTIC    SUNNY     71  54  54 CALM      30.02R
OXFORD         SUNNY     68  55  64 N6        30.06R
$$

MEZ002-015-021-024-NHZ003-005-008-011-012-014-VTZ005-008-251500-
NORTHERN NEW ENGLAND

CITY           SKY/WX    TMP DP  RH WIND       PRES   REMARKS
PORTLAND ME    SUNNY     72  57  59 NW7       29.95S
BANGOR ME      SUNNY     70  56  61 W6        29.91F
CONCORD NH     SUNNY     69  54  58 NW5       29.99S
MANCHESTER NH  SUNNY     71  54  54 NW6       29.97S
NASHUA NH      SUNNY     71  55  56 NW7       30.00R
PORTSMOUTH NH  SUNNY     70  58  64 VRB6      29.96S
JAFFREY NH     SUNNY     69  54  58 CALM      30.03R
KEENE NH       SUNNY     64  48  55 CALM      30.03S
BURLINGTON VT  MOSUNNY   69  53  56 S12       29.99S
MT. WASHINGTON FOG       43  43 100 NW33        N/A  VSB 1/16WCI  32
$$

NYZ052-076-251500-
EASTERN NEW YORK

CITY           SKY/WX    TMP DP  RH WIND       PRES   REMARKS
ALBANY         SUNNY     69  56  62 SW3       30.04F
NEW YORK CITY  NOT AVBL
$$

ANZALL-251500-
MARINE OBSERVATIONS

STATION/POSITION TIME  TEMP    WIND        PRES    VSBY  WAVE
                       AIR SEA DIR/SP/G                  HT/PER
                 (UTC) (F)     (DEG/KT/KT) (MB)    (MI)  (FT/S)
BOSTON BUOY      NOT AVBL
BUZZARDS BAY     NOT AVBL
NANTUCKET SOUND  NOT AVBL
MASS BAY-STELLWA NOT AVBL
ISLE OF SHOALS   NOT AVBL
S OF BLOCK IS    NOT AVBL
$$

......................KEY.........................
  SKY/WX - SKY CONDITION/PRESENT WEATHER
  TMP    - TEMPERATURE IN FAHRENHEIT
  DWPT   - DEWPOINT IN FAHRENHEIT
  RH     - RELATIVE HUMIDITY IN PERCENT
  WIND   - DIRECTION AND SPEED IN MPH
  PRES   - MEAN SEA LEVEL PRESSURE IN INCHES OF HG
  WCI    - WIND CHILL INDEX
  VSB    - VISIBILITY IN MILES
  HX     - HEAT INDEX
  TC     - TEMPERATURE IN CELSIUS
  VRB    - VARIABLE WIND DIRECTION
  N/A    - NOT AVAILABLE



USA.gov is the U.S. government's official web portal to all federal, state and local government web resources and services.